map of BEL home
Great Circle Mapper logo
BEL - Airport
Location
City:  Belém, Pará, Brazil
Name:Belém International - Val-de-Căes
Old (Alt.):Júlio Cezar Ribeiro
ICAO / IATA:SBBE / BEL

Details
Type:Airport (Aerodrome, Airfield)
Use:Public/Civil, Military, International (customs port of entry)
Latitude:1°22'45"S (-1.379249)
Longitude:48°28'35"W (-48.476291)
Datum:WGS 1984
Elevation:54 ft (16 m)
Variation:20.1°W (WMM2015 magnetic declination)
Runways:2
Longest:9180 × 148 ft (2798 × 45 m), paved

Time
Time Zone:UTC-3
Local Time:

Weather
METAR:SBBE 210400Z 07007KT CAVOK 25/23 Q1011
TAF:SBBE 210400Z 2106/2206 08005KT CAVOK TN24/2107Z TX32/2117Z
BECMG 2111/2113 09010KT SCT025
BECMG 2115/2117 36010KT BKN035 FEW040TCU
BECMG 2122/2 124 06008KT CAVOK
BECMG 2202/2204 08005KT
RMK PEH

Related Locations
Nearby:
Farthest:WAXX: 12273 mi / 19751 km
Sorong [Dominique Edward Osok (Sorong Mainland)], Jaya Island, ID

Find:

   beyond  
but within

Other Information
Maps:
NOTAMs:
Links:
Sources:

  
flag of Brazil
flag of Pará
  

Sectional Chart

Flight Planning
at skyvector.com

Satellite Image

Google Maps Satellite View

 

Copyright © 2004-2014 Karl L. Swartz. All rights reserved.
The Great Circle Mapper name and logo are trademarks of the Great Circle Mapper.
All other trademarks mentioned herein belong to their respective owners.
Please see credits for attibutions and further copyright information.

  Follow gcmap on Facebook Follow gcmap on Twitter

hCard Microformat

Geo Microformat